Voltar ao catálogo

BREEZE-M DEB

LostHEO
NORAD 38574·DEBRIS·🇷🇺 Russia

Lançado Mar 14, 2008 de Baikonur Cosmodrome

Loading…

Próximas Passagens (próximas 24 horas)

TLE

ObsoletoSource: Space-Track

Época: Aug 10, 2026, 18:54 UTC

1 38574U 08011V   26222.78759089  .00000080  00000-0  00000-0 0  9992
2 38574  48.3358 189.0904 6244026  84.7012 339.0004  3.01800527  5782

Acompanhe BREEZE-M DEB em tempo real com AllMySat

Download on the App Store